This is the latest recevied weather packets stored in our database for station/object KF7SOJ. If no packets are shown the sender has not sent any weather packets the latest 10 day(s).
| Time | Temp. | Humidity | Pressure | Rain* | Wind** | Luminosity | Snow |
|---|---|---|---|---|---|---|---|
| 1788123032 | 21.11° C | 45% | 930.3 hPa | 0 mm | - | 774 W/m² | - |
| 1788122731 | 20.56° C | 46% | 930.4 hPa | 0 mm | - | 797 W/m² | - |
| 1788122430 | 20.56° C | 52% | 930.4 hPa | 0 mm | - | 891 W/m² | - |
| 1788122127 | 20° C | 50% | 930.4 hPa | 0 mm | - | 401 W/m² | - |
| 1788121822 | 20° C | 51% | 930.4 hPa | 0 mm | - | 554 W/m² | - |
| 1788121521 | 20° C | 54% | 930.4 hPa | 0 mm | - | 440 W/m² | - |
| 1788121218 | 19.44° C | 55% | 930.8 hPa | 0 mm | - | 644 W/m² | - |
| 1788120916 | 19.44° C | 54% | 930.6 hPa | 0 mm | - | 325 W/m² | - |
| 1788120617 | 19.44° C | 55% | 930.7 hPa | 0 mm | - | 680 W/m² | - |
| 1788120312 | 18.89° C | 58% | 930.5 hPa | 0 mm | - | 917 W/m² | - |
| 1788120011 | 18.33° C | 60% | 930.5 hPa | 0 mm | - | 773 W/m² | - |
| 1788119708 | 18.33° C | 60% | 930.4 hPa | 0 mm | - | 863 W/m² | - |
| 1788119405 | 17.78° C | 64% | 930.7 hPa | 0 mm | - | 779 W/m² | - |
| 1788119104 | 17.22° C | 66% | 930.4 hPa | 0 mm | - | 722 W/m² | - |
| 1788118799 | 17.78° C | 63% | 930.4 hPa | 0 mm | - | 862 W/m² | - |
| 1788118498 | 17.78° C | 63% | 930.6 hPa | 0 mm | - | 764 W/m² | - |
| 1788118194 | 17.78° C | 62% | 930.6 hPa | 0 mm | - | 874 W/m² | - |
| 1788117889 | 17.78° C | 66% | 930.6 hPa | 0 mm | - | 845 W/m² | - |
| 1788117584 | 17.22° C | 63% | 930.6 hPa | 0 mm | - | 845 W/m² | - |
| 1788117284 | 17.22° C | 61% | 930.6 hPa | 0 mm | - | 850 W/m² | - |
| 1788116980 | 16.67° C | 72% | 930.6 hPa | 0 mm | - | 860 W/m² | - |
| 1788116674 | 16.67° C | 73% | 930.8 hPa | 0 mm | - | 812 W/m² | - |
| 1788116374 | 16.11° C | 76% | 930.7 hPa | 0 mm | - | 510 W/m² | - |
| 1788116069 | 16.11° C | 76% | 930.9 hPa | 0 mm | - | 302 W/m² | - |
| 1788115764 | 16.11° C | 76% | 930.9 hPa | 0 mm | - | 352 W/m² | - |
* Rain latest hour (hover to see other rain measurements)
** Current wind speed in m/s (hover to see current wind gust speed)